Flag Weather past 2 weeks in Hollywood, California, U.S.A.

Now
58 °F

Clear.


Feels Like: 58 °F
Forecast: 55 / 77 °F
Wind: No wind

Location: Van Nuys Airport

Current Time: Nov 27, 2014 at 11:38:49 PM

Latest Report: Nov 27, 2014 at 10:51 PM


Visibility: 10 mi

Pressure: 30.01 "Hg

Humidity: 39%

Dew point: 33 °F

Location of HollywoodLocation

Historic Weather in Hollywood — Graph

°F

Hollywood temperature yesterday

Maximum temperature yesterday: 87 °F (at 1:51 PM)
Minimum temperature yesterday: 48 °F (at 5:51 AM)
Average temperature yesterday: 65 °F

Past Weeks' High & Low Weather Summary

 TemperatureHumidityPressure
High89 °F (Nov 27, 2:51 PM)90% (Nov 13, 9:51 PM)30.39 "Hg (Nov 13, 9:51 PM)
Low47 °F (Nov 22, 5:51 AM)2% (Nov 16, 1:51 PM)29.90 "Hg (Nov 21, 1:51 PM)
Average63 °F39%30.09 "Hg
* Reported Nov 12 9:51 PM — Nov 27 9:51 PM, Hollywood, Weather by CustomWeather, © 2014

Note: Actual official high and low records may vary slightly from our data, if they occured in-between our weather recording intervals... More about our weather records

Advertising

Hollywood weather history for previous 24 hours

 ConditionsComfort  
Time TempWeatherWind HumidityBarometerVisibility
9:51 PM
Nov 27
60 °FClear.No wind36%30.01 "Hg10 mi
8:51 PM62 °FClear.No wind34%30.01 "Hg10 mi
7:51 PM66 °FClear.5 mph28%30.02 "Hg10 mi
6:51 PM69 °FClear.5 mph22%30.02 "Hg10 mi
5:51 PM75 °FClear.5 mph18%30.01 "Hg10 mi
4:51 PM80 °FClear.5 mph13%29.99 "Hg10 mi
3:51 PM86 °FSunny.7 mph9%29.98 "Hg10 mi
2:51 PM89 °FSunny.No wind7%29.98 "Hg10 mi
1:51 PM88 °FSunny.3 mph7%30.00 "Hg10 mi
12:51 PM88 °FSunny.No wind7%30.02 "Hg10 mi
11:51 AM84 °FScattered clouds.3 mph10%30.05 "Hg10 mi
10:51 AM79 °FSunny.No wind12%30.09 "Hg10 mi
9:51 AM73 °FScattered clouds.No wind18%30.11 "Hg10 mi
8:51 AM65 °FSunny.3 mph25%30.12 "Hg10 mi
7:51 AM57 °FSunny.No wind36%30.12 "Hg10 mi
6:51 AM49 °FSunny.No wind50%30.12 "Hg10 mi
5:51 AM49 °FClear.No wind48%30.11 "Hg10 mi
4:51 AM51 °FClear.No wind44%30.09 "Hg10 mi
3:51 AM51 °FClear.No wind42%30.09 "Hg10 mi
2:51 AM51 °FClear.No wind42%30.10 "Hg10 mi
1:51 AM56 °FClear.No wind34%30.11 "Hg10 mi
12:51 AM55 °FClear.No wind39%30.12 "Hg10 mi
11:51 PM
Nov 26
56 °FClear.No wind37%30.13 "Hg10 mi
Weather by CustomWeather, © 2014

See weather overviewHow to use our weather pages